This is the latest recevied weather packets stored in our database for station/object NE8U. If no packets are shown the sender has not sent any weather packets the latest 10 day(s).
| Time | Temp. | Humidity | Pressure | Rain* | Wind** | Luminosity | Snow |
|---|---|---|---|---|---|---|---|
| 1777709284 | 18.89° C | 30% | 1014.8 hPa | 0 mm | - | 0 W/m² | - |
| 1777708981 | 18.89° C | 31% | 1014.5 hPa | 0 mm | - | 0 W/m² | - |
| 1777708678 | 18.89° C | 31% | 1014.6 hPa | 0 mm | - | 0 W/m² | - |
| 1777708376 | 18.89° C | 31% | 1014.6 hPa | 0 mm | - | 0 W/m² | - |
| 1777708073 | 18.89° C | 30% | 1014.5 hPa | 0 mm | - | 0 W/m² | - |
| 1777707771 | 18.89° C | 31% | 1014.8 hPa | 0 mm | - | 0 W/m² | - |
| 1777707467 | 18.89° C | 31% | 1014.6 hPa | 0 mm | - | 0 W/m² | - |
| 1777707163 | 18.89° C | 31% | 1014.6 hPa | 0 mm | - | 0 W/m² | - |
| 1777706861 | 19.44° C | 30% | 1014.8 hPa | 0 mm | - | 0 W/m² | - |
| 1777706558 | 19.44° C | 30% | 1014.8 hPa | 0 mm | - | 0 W/m² | - |
| 1777706256 | 20° C | 30% | 1014.6 hPa | 0 mm | - | 0 W/m² | - |
| 1777705953 | 20° C | 29% | 1014.8 hPa | 0 mm | - | 0 W/m² | - |
| 1777705652 | 20.56° C | 29% | 1014.6 hPa | 0 mm | - | 0 W/m² | - |
| 1777705349 | 20.56° C | 28% | 1014.8 hPa | 0 mm | - | 0 W/m² | - |
| 1777705047 | 21.11° C | 28% | 1014.8 hPa | 0 mm | - | 0 W/m² | - |
| 1777704745 | 20.56° C | 28% | 1014.5 hPa | 0 mm | - | 0 W/m² | - |
| 1777704443 | 20.56° C | 28% | 1014.6 hPa | 0 mm | - | 0 W/m² | - |
| 1777704141 | 21.11° C | 28% | 1014.8 hPa | 0 mm | - | 0 W/m² | - |
| 1777703838 | 21.67° C | 27% | 1014.8 hPa | 0 mm | - | 0 W/m² | - |
| 1777703536 | 21.67° C | 28% | 1014.6 hPa | 0 mm | - | 0 W/m² | - |
| 1777703232 | 21.11° C | 28% | 1014.5 hPa | 0 mm | - | 0 W/m² | - |
| 1777702931 | 21.11° C | 28% | 1014.5 hPa | 0 mm | - | 0 W/m² | - |
| 1777702629 | 21.67° C | 28% | 1014.3 hPa | 0 mm | - | 0 W/m² | - |
| 1777702326 | 21.11° C | 28% | 1014.5 hPa | 0 mm | - | 0 W/m² | - |
| 1777702021 | 21.11° C | 29% | 1014.3 hPa | 0 mm | - | 0 W/m² | - |
* Rain latest hour (hover to see other rain measurements)
** Current wind speed in m/s (hover to see current wind gust speed)